Temp
27 24 23 24 23 26 26 25 25 27 28 27 25 26 25 25 24 24 24 24 25 25 26 25 25 25 25 24 23 23 22 21 21 21 20 19 20 19 18 18 17 17 17 17
23 22 24 25 25 25 25 25 25 26 28 27 26 27 26 24 25 25 24 24 26 26 26 26 25 25 25 24 23 23 22 21 22 21 20 19 20 19 19 18 18 18 18 17
23 25 27 26 26 26 25 25 25 26 28 29 28 26 25 24 25 25 25 25 25 27 26 26 25 25 24 24 24 23 22 22 22 21 20 20 20 19 19 18 18 18 17 17
24 26 26 26 25 25 24 25 28 27 27 24 27 24 23 24 23 23 24 25 26 26 26 27 26 25 25 24 24 23 22 20 22 21 21 20 20 19 19 18 18 17 18 17
24 27 27 27 26 26 26 26 26 27 25 24 25 23 23 22 24 22 24 25 25 27 27 27 27 25 25 24 24 23 23 22 22 21 20 19 20 19 18 18 18 18 17 17
25 27 27 26 28 27 28 27 21 19 19 21 23 23 22 22 23 24 25 26 26 26 27 26 26 25 25 24 23 22 19 21 21 21 21 19 19 18 18 17 17 17 17 17
25 25 27 29 28 27 25 21 21 22 21 21 21 22 22 24 23 24 25 26 28 26 26 25 25 25 25 24 23 23 22 21 22 21 20 19 19 18 18 18 17 17 17 17
23 23 26 29 27 27 27 22 20 24 21 22 22 24 25 24 23 25 26 26 24 24 23 22 21 21 25 25 24 23 22 21 22 21 19 19 18 18 18 17 17 16 17 17
20 22 25 27 27 27 26 24 22 19 18 21 21 23 24 23 20 20 19 21 21 22 22 21 20 18 20 24 24 23 22 22 21 20 19 18 18 18 17 16 16 16 16 16
23 23 24 27 28 27 26 23 23 18 23 23 21 22 22 23 20 19 18 18 21 22 24 26 20 22 20 23 24 23 22 21 21 19 18 17 17 18 16 15 16 16 16 15
21 22 25 28 26 26 24 24 19 18 18 20 21 21 18 19 20 19 18 20 22 23 24 21 20 23 21 20 23 23 22 21 21 19 18 17 17 18 17 16 16 16 15 14
21 19 21 23 25 25 25 24 21 20 22 17 18 21 18 16 17 19 18 21 21 23 24 21 21 21 20 20 23 23 22 21 20 19 17 17 17 18 17 17 16 15 15 15
21 19 21 22 22 24 26 25 19 16 16 17 20 21 17 16 17 20 19 20 20 23 22 24 24 24 21 21 23 23 21 20 19 19 18 17 17 18 17 17 17 17 17 15
22 16 21 22 22 23 26 26 23 20 19 19 19 23 18 17 17 18 20 21 20 19 18 22 21 22 21 22 23 22 21 19 19 19 19 18 18 17 17 16 16 15 15 15
19 21 22 22 23 25 26 26 24 25 23 23 23 19 19 18 18 19 21 20 20 19 19 19 20 20 22 23 22 21 21 20 20 19 20 18 17 17 17 16 16 15 14 14
17 20 21 23 23 24 26 26 25 25 22 21 20 20 18 20 20 20 21 21 20 23 23 23 20 23 24 23 22 21 21 21 20 19 19 17 17 16 16 16 16 16 15 14
18 17 18 21 20 23 22 24 24 24 21 19 20 21 19 18 17 20 22 21 23 23 23 21 24 24 23 23 22 22 21 20 21 20 18 18 17 16 16 16 16 15 15 15
18 17 15 18 19 22 22 20 21 21 19 17 17 18 18 20 25 24 20 22 22 22 23 23 24 23 22 22 21 21 21 21 21 19 18 17 17 17 16 16 16 15 15 15
18 15 18 18 17 20 22 18 18 18 19 15 14 16 18 20 20 21 21 22 22 22 22 24 24 23 23 22 21 21 22 21 20 19 18 18 18 17 17 17 16 16 15 15
14 14 17 15 20 21 16 17 16 17 18 15 14 14 16 19 17 17 19 21 22 23 23 23 23 23 23 22 20 21 20 20 20 20 19 19 18 17 17 17 17 16 16 15
14 13 16 15 17 16 16 14 16 20 17 14 13 15 16 16 15 16 17 19 20 20 22 23 23 22 22 22 21 21 20 20 20 20 19 18 17 17 17 17 17 17 16 16
14 14 13 14 17 18 14 16 15 14 14 14 14 15 16 17 16 17 17 18 20 22 22 22 22 21 21 22 22 21 20 19 19 19 18 18 18 18 18 17 17 16 16 16
14 13 13 13 13 13 12 14 14 13 12 14 14 15 16 16 16 17 18 19 20 22 23 21 21 21 22 21 21 21 20 18 18 18 19 19 19 17 17 17 17 16 15 15
13 13 12 13 13 12 13 13 13 14 14 14 14 14 14 14 15 16 17 18 20 18 21 20 20 20 19 20 21 20 19 19 19 18 19 19 19 17 18 17 16 15 15 15
14 14 12 13 14 12 13 14 13 14 15 14 13 15 14 14 14 15 15 16 17 18 18 18 17 17 17 18 17 17 17 17 18 18 19 18 18 17 16 16 15 15 15 14
14 13 13 13 15 14 15 14 12 12 12 14 14 15 15 16 17 16 15 16 16 18 17 17 17 17 15 15 15 15 15 15 15 16 17 17 16 15 14 14 13 14 14 14
Height
1502 1509 1519 1512 1511 1510 1512 1517 1516 1498 1494 1501 1504 1501 1499 1495 1502 1502 1501 1502 1502 1504 1509 1513 1514 1515 1518 1522 1525 1529 1533 1534 1534 1535 1535 1535 1534 1532 1531 1530 1529 1529 1530 1532
1509 1516 1502 1502 1506 1510 1512 1516 1512 1498 1491 1499 1498 1494 1492 1494 1490 1488 1489 1493 1499 1501 1506 1510 1512 1513 1516 1521 1524 1525 1528 1530 1531 1531 1532 1532 1533 1533 1531 1531 1530 1530 1530 1532
1511 1500 1497 1501 1504 1510 1510 1513 1508 1505 1490 1487 1489 1497 1492 1492 1491 1490 1492 1490 1497 1497 1502 1505 1509 1512 1516 1521 1523 1523 1528 1530 1532 1531 1529 1530 1530 1531 1531 1531 1532 1531 1531 1532
1502 1491 1495 1498 1503 1503 1517 1495 1492 1496 1502 1522 1493 1531 1501 1489 1489 1486 1486 1487 1491 1494 1502 1504 1507 1511 1515 1518 1520 1518 1518 1524 1528 1529 1529 1527 1528 1528 1530 1531 1532 1531 1531 1532
1500 1491 1494 1498 1494 1492 1498 1486 1489 1492 1505 1511 1508 1526 1506 1493 1490 1484 1480 1482 1487 1494 1498 1500 1504 1508 1512 1515 1508 1502 1508 1509 1522 1523 1524 1524 1525 1527 1528 1529 1530 1531 1532 1532
1490 1485 1487 1486 1481 1483 1480 1488 1501 1508 1521 1541 1514 1520 1515 1501 1487 1476 1475 1476 1484 1489 1494 1499 1504 1509 1512 1512 1498 1495 1491 1506 1524 1522 1520 1521 1522 1523 1526 1527 1528 1530 1531 1531
1491 1486 1481 1480 1485 1482 1488 1506 1539 1540 1547 1546 1516 1523 1508 1484 1479 1474 1471 1473 1479 1485 1491 1498 1502 1503 1509 1511 1508 1508 1500 1512 1523 1523 1519 1518 1520 1520 1524 1526 1526 1529 1530 1530
1509 1513 1481 1476 1482 1488 1488 1500 1534 1542 1548 1534 1511 1517 1497 1482 1477 1471 1472 1476 1480 1488 1494 1503 1505 1515 1509 1510 1513 1514 1515 1518 1520 1519 1517 1517 1519 1521 1522 1522 1524 1527 1528 1528
1510 1504 1475 1473 1474 1478 1488 1501 1495 1527 1534 1534 1523 1503 1485 1478 1480 1474 1475 1473 1479 1481 1486 1495 1507 1517 1518 1512 1509 1514 1515 1515 1514 1517 1517 1518 1519 1521 1520 1518 1521 1523 1525 1526
1482 1500 1477 1471 1471 1472 1477 1481 1509 1523 1535 1537 1528 1516 1510 1490 1488 1485 1481 1477 1481 1484 1491 1489 1504 1511 1515 1511 1507 1510 1513 1514 1512 1517 1519 1520 1520 1518 1515 1518 1520 1522 1523 1524
1477 1488 1482 1473 1479 1479 1485 1490 1499 1509 1520 1536 1540 1524 1498 1490 1484 1485 1487 1481 1481 1489 1490 1495 1495 1490 1505 1505 1504 1509 1513 1514 1512 1515 1520 1522 1520 1519 1517 1519 1521 1519 1521 1523
1468 1486 1497 1487 1471 1469 1472 1479 1488 1516 1516 1525 1525 1516 1492 1488 1483 1482 1489 1488 1489 1488 1488 1486 1489 1485 1490 1509 1505 1509 1513 1512 1512 1513 1519 1523 1522 1520 1521 1521 1521 1521 1522 1523
1467 1489 1504 1496 1484 1472 1475 1474 1486 1497 1506 1524 1526 1514 1486 1488 1483 1482 1482 1483 1488 1486 1484 1477 1484 1489 1493 1503 1507 1508 1514 1511 1511 1509 1516 1521 1520 1521 1522 1522 1522 1523 1523 1523
1463 1486 1486 1501 1491 1477 1478 1475 1479 1488 1508 1513 1511 1493 1489 1483 1481 1477 1477 1483 1488 1489 1486 1482 1482 1485 1496 1502 1505 1506 1512 1512 1512 1511 1515 1519 1521 1521 1522 1523 1525 1526 1527 1525
1466 1484 1478 1477 1476 1472 1470 1472 1477 1479 1484 1495 1486 1496 1479 1470 1466 1467 1476 1481 1484 1486 1482 1481 1482 1488 1492 1499 1504 1507 1508 1508 1512 1514 1515 1521 1523 1522 1522 1522 1526 1528 1529 1528
1471 1484 1479 1480 1476 1474 1470 1468 1469 1471 1480 1484 1483 1486 1469 1468 1469 1471 1468 1471 1481 1477 1477 1479 1483 1485 1488 1495 1501 1504 1502 1505 1511 1514 1518 1523 1523 1525 1524 1524 1525 1526 1528 1530
1478 1484 1490 1491 1484 1478 1491 1477 1473 1473 1477 1482 1490 1475 1466 1467 1466 1465 1466 1467 1471 1474 1475 1479 1481 1485 1490 1492 1496 1495 1496 1501 1505 1510 1515 1518 1521 1523 1524 1525 1526 1525 1527 1530
1478 1485 1494 1496 1489 1503 1482 1474 1472 1477 1484 1485 1483 1474 1466 1458 1455 1462 1468 1470 1472 1476 1476 1479 1483 1488 1490 1490 1493 1495 1497 1497 1501 1507 1511 1515 1517 1519 1521 1524 1526 1525 1526 1528
1470 1483 1493 1499 1504 1489 1478 1485 1487 1490 1487 1485 1482 1474 1464 1468 1467 1465 1467 1470 1471 1471 1474 1483 1486 1491 1490 1495 1496 1492 1494 1495 1500 1503 1508 1512 1514 1517 1519 1521 1524 1524 1524 1527
1476 1476 1488 1504 1499 1501 1499 1485 1484 1487 1499 1489 1485 1476 1469 1468 1479 1472 1471 1474 1474 1474 1478 1484 1488 1495 1494 1497 1501 1497 1495 1494 1496 1500 1505 1509 1512 1515 1518 1520 1521 1521 1522 1524
1489 1493 1494 1499 1498 1501 1492 1484 1479 1492 1501 1490 1488 1482 1474 1474 1479 1478 1476 1476 1476 1479 1480 1479 1485 1497 1501 1498 1500 1496 1500 1496 1495 1499 1506 1510 1514 1516 1516 1517 1517 1517 1519 1520
1497 1500 1504 1502 1498 1501 1491 1484 1494 1501 1491 1490 1488 1484 1481 1479 1477 1477 1477 1478 1479 1476 1482 1485 1489 1489 1496 1500 1498 1495 1500 1502 1496 1498 1503 1509 1512 1516 1513 1511 1511 1514 1515 1517
1500 1497 1503 1504 1507 1500 1498 1497 1497 1496 1493 1488 1486 1486 1483 1482 1480 1479 1479 1477 1482 1481 1479 1479 1486 1485 1487 1499 1500 1497 1498 1498 1494 1497 1501 1507 1508 1507 1511 1511 1511 1510 1512 1512
1494 1492 1499 1501 1499 1499 1498 1497 1496 1494 1490 1488 1484 1482 1482 1480 1481 1482 1482 1481 1474 1479 1487 1480 1481 1479 1484 1491 1495 1494 1498 1494 1492 1495 1498 1501 1503 1503 1504 1508 1510 1508 1508 1508
1495 1493 1499 1500 1497 1496 1497 1496 1496 1492 1488 1486 1481 1480 1479 1477 1474 1475 1476 1476 1476 1481 1483 1480 1477 1476 1479 1486 1492 1495 1493 1492 1491 1493 1496 1498 1496 1497 1500 1502 1506 1504 1503 1504
1493 1495 1500 1502 1495 1496 1497 1496 1495 1493 1489 1485 1485 1481 1477 1473 1471 1471 1474 1476 1479 1477 1477 1477 1476 1475 1483 1484 1490 1492 1491 1490 1491 1491 1492 1494 1493 1497 1496 1497 1500 1502 1500 1498
Wind_Speed
4 4 5 9 7 5 3 4 8 6 6 6 11 9 10 27 22 22 32 35 38 37 35 34 30 26 21 19 20 17 17 15 12 10 8 5 1 3 4 5 5 4 7 15
4 4 9 3 4 5 6 7 12 8 6 7 13 8 6 15 30 39 37 37 37 34 35 33 31 30 26 23 20 17 17 15 9 9 8 6 4 3 3 4 4 4 5 6
6 8 3 3 3 5 5 7 9 10 5 3 2 7 2 5 6 25 24 29 33 38 33 34 32 32 29 26 20 18 12 10 10 10 9 8 6 7 5 4 5 6 6 6
6 5 8 6 7 8 4 11 16 9 3 5 4 5 6 3 1 7 18 19 32 36 25 31 32 34 32 27 23 20 14 16 11 10 10 8 8 10 7 5 6 6 6 7
11 3 1 4 8 7 11 7 15 10 3 5 3 3 8 3 5 10 14 22 25 29 29 32 35 37 34 29 30 29 18 11 11 11 9 9 9 11 9 7 7 6 4 4
9 3 5 7 5 6 3 4 8 6 5 1 7 5 6 4 8 5 12 25 23 27 32 31 33 36 34 30 33 21 3 1 11 9 8 10 10 11 10 9 8 7 4 5
4 6 4 5 5 3 5 6 2 2 2 6 4 3 9 7 8 9 13 21 30 28 34 30 32 36 33 29 25 12 5 11 12 11 9 11 12 11 9 9 8 9 8 8
5 8 5 4 6 5 2 7 6 5 3 5 4 4 5 3 12 14 19 9 8 15 14 12 4 13 31 27 17 16 15 12 12 13 10 10 9 6 7 8 8 6 7 6
6 9 5 5 5 6 2 2 5 7 3 2 3 6 6 6 11 12 20 25 25 25 20 16 16 24 22 24 18 18 15 12 8 10 6 5 7 9 7 10 8 5 5 2
7 3 6 5 4 2 6 6 2 3 4 4 5 4 5 4 4 4 10 20 20 20 19 14 13 27 19 28 22 17 13 10 5 6 5 5 5 6 4 13 10 6 5 5
6 4 7 3 3 4 2 2 6 6 4 6 1 6 6 6 4 4 7 21 23 22 10 11 28 24 22 25 20 14 14 10 9 7 7 6 4 8 14 11 9 8 9 9
9 6 6 11 5 1 2 5 6 5 5 1 4 6 4 7 9 8 10 17 16 18 15 9 7 17 21 20 16 17 14 12 11 9 9 9 8 10 8 7 5 7 7 8
6 1 2 10 7 5 2 2 5 5 4 5 6 6 4 7 10 17 18 25 19 19 30 24 28 28 22 22 21 18 17 13 12 11 10 12 12 11 7 6 6 7 8 8
6 3 6 8 7 4 3 2 3 4 4 5 6 3 7 9 11 18 26 16 25 30 34 23 32 29 26 29 26 23 17 14 12 10 10 14 17 11 8 6 7 7 7 8
4 3 1 3 3 3 4 4 6 4 4 3 4 7 9 17 16 24 21 19 22 25 30 39 38 35 31 28 25 22 17 14 12 11 12 14 12 10 8 8 8 7 6 8
5 1 1 2 2 5 1 4 3 4 4 3 4 5 7 12 17 17 23 19 24 15 18 27 32 29 30 28 25 23 18 14 14 14 13 14 12 10 9 9 8 8 8 9
3 2 3 3 2 0 5 6 5 5 6 5 3 8 2 5 11 26 27 16 23 18 22 29 31 30 30 25 24 19 16 19 18 18 18 17 14 12 9 9 7 8 6 8
3 3 1 3 3 2 5 8 8 9 9 10 6 13 13 18 29 26 14 12 12 10 19 25 23 26 27 20 17 15 18 21 21 21 21 20 16 13 11 9 7 7 8 7
3 5 2 2 2 4 3 8 6 6 4 13 11 15 22 5 6 17 18 13 9 10 15 19 14 16 14 17 16 15 21 22 23 23 23 21 17 16 13 11 9 7 9 12
6 6 4 2 1 3 2 11 14 2 3 17 21 16 10 5 4 0 7 10 10 9 16 13 4 15 15 16 20 17 21 23 23 20 20 19 18 17 15 13 12 8 10 12
4 4 4 3 3 1 10 17 11 3 5 21 21 16 16 4 4 6 1 10 12 12 12 8 9 13 17 19 18 17 19 20 18 17 17 17 16 16 14 13 14 13 12 15
3 2 2 1 2 1 22 4 6 6 15 13 16 13 11 8 9 7 8 10 11 11 6 4 5 8 16 26 20 19 19 13 14 18 20 18 18 15 13 13 13 16 18 18
3 2 4 2 4 4 4 6 3 6 13 15 17 16 10 8 12 10 2 5 5 3 19 23 24 11 18 29 27 24 22 17 17 20 19 20 17 16 16 15 15 20 20 19
4 1 4 2 2 5 8 9 11 10 13 14 17 16 13 7 7 7 11 21 19 22 29 18 17 18 16 24 27 26 28 23 15 18 19 19 17 17 16 16 17 15 15 17
2 2 3 1 2 3 9 10 12 12 12 10 12 13 14 14 11 10 10 15 11 15 17 13 11 10 16 19 22 28 27 17 15 17 18 19 17 16 15 16 18 17 16 18
1 5 3 4 5 3 1 4 7 8 14 10 10 8 10 14 19 19 10 14 18 15 10 7 8 9 13 15 16 18 18 14 13 13 15 15 14 14 14 13 15 18 18 19
Wind_Direction
339 77 227 240 202 206 243 227 269 285 172 148 198 224 186 188 197 201 202 209 215 215 219 219 210 215 216 222 219 225 226 229 244 262 262 241 307 73 76 88 107 136 211 219
10 225 235 230 175 197 232 273 270 287 197 189 189 207 229 190 207 205 202 207 210 212 217 215 214 216 213 221 218 223 228 232 246 256 244 226 196 165 110 106 110 133 135 155
183 236 60 188 243 207 216 212 260 224 327 308 31 323 347 205 233 223 221 209 212 208 209 208 214 219 214 217 220 220 230 249 257 255 248 229 209 185 164 157 154 158 164 174
231 260 224 268 251 159 229 218 241 265 26 270 33 280 307 304 263 235 217 209 220 215 220 212 215 219 221 218 221 213 197 230 254 256 248 242 227 199 189 181 185 186 190 186
242 255 179 246 240 150 237 188 214 236 128 13 321 81 273 344 275 246 229 226 224 221 225 216 219 222 223 220 220 215 216 180 241 242 230 236 220 195 194 179 200 204 194 186
238 239 183 225 273 181 291 67 39 41 86 79 249 134 287 206 229 253 241 228 231 217 224 225 221 223 223 226 231 220 223 137 252 239 232 226 207 203 200 187 193 212 245 232
321 266 246 221 290 16 83 65 2 9 12 213 124 72 237 278 277 232 237 229 231 236 218 214 217 222 225 230 229 233 298 246 257 239 225 224 223 214 217 225 220 213 220 234
176 303 181 164 177 228 130 145 153 211 216 258 201 226 263 320 320 276 254 263 140 162 168 145 125 240 223 220 213 220 246 225 246 239 229 232 232 228 243 228 194 193 216 200
167 262 277 229 187 128 215 172 185 108 33 42 267 295 340 355 22 67 91 122 124 132 135 122 20 337 233 210 209 221 239 229 242 235 235 227 214 249 234 208 206 202 193 200
216 292 217 283 188 186 163 162 80 8 131 241 295 280 234 334 7 352 94 110 123 139 118 77 141 259 271 223 208 210 220 222 222 214 185 182 215 312 154 176 166 172 158 146
140 134 254 118 205 211 16 227 56 113 134 163 203 271 180 235 254 222 176 138 133 109 40 147 183 214 258 238 198 195 198 200 179 169 172 177 180 120 113 145 160 167 149 152
195 159 237 225 279 269 170 199 140 132 248 108 147 263 110 238 264 216 194 178 125 108 91 159 193 264 230 234 199 197 201 190 168 155 172 192 196 162 146 161 149 149 161 149
183 198 263 322 353 8 152 137 102 90 92 188 131 258 164 239 263 210 209 202 152 129 132 123 160 191 224 220 208 199 201 185 176 165 191 207 192 192 193 187 176 173 163 153
103 123 159 212 209 168 152 119 113 126 107 163 214 254 265 229 217 223 209 209 177 155 158 160 176 189 205 214 198 194 198 188 183 176 192 202 182 179 173 166 172 174 176 176
84 102 204 188 278 269 217 131 150 179 169 149 240 204 232 223 207 213 200 201 181 199 201 207 212 207 203 196 193 194 193 183 191 187 173 182 182 180 167 164 175 178 182 181
352 100 98 96 345 309 276 339 79 118 133 111 106 261 212 237 240 256 250 232 190 182 191 192 197 202 191 191 195 193 189 189 191 180 177 186 178 177 159 168 167 171 179 188
61 77 50 274 317 120 8 3 31 82 35 129 142 244 131 238 214 237 238 212 203 187 186 195 198 200 195 190 193 192 191 187 181 179 187 187 180 174 170 179 174 169 179 212
126 92 96 211 13 125 223 18 52 101 67 14 330 307 257 229 220 224 235 216 227 220 209 199 201 197 192 190 189 186 188 181 183 186 193 192 185 183 181 196 203 193 207 224
149 118 58 107 168 265 62 23 5 16 353 21 343 331 313 305 255 258 261 237 258 252 226 211 204 207 197 195 189 181 187 185 188 193 197 198 193 197 198 199 212 228 235 236
88 74 122 111 121 223 360 312 320 278 273 10 348 332 343 91 190 244 338 277 241 238 201 184 214 280 225 211 196 188 190 190 198 199 202 203 205 209 217 222 224 232 241 246
8 11 160 177 190 39 322 312 332 132 273 342 347 352 13 37 357 340 64 154 150 117 121 153 214 240 271 244 211 200 208 205 199 196 202 207 211 217 219 226 231 236 243 243
106 72 25 358 88 285 338 355 69 260 306 310 356 359 358 31 41 83 93 102 135 139 108 62 306 274 280 263 241 222 227 223 195 201 205 214 219 228 232 233 242 239 242 247
34 159 153 111 192 188 11 74 344 313 311 327 342 352 349 319 341 348 31 69 39 254 285 290 257 239 242 262 244 233 228 226 207 216 225 232 223 224 241 251 257 247 244 252
333 122 95 99 202 220 256 341 348 337 310 321 326 333 329 310 277 281 258 265 266 271 259 221 237 231 239 243 239 231 226 232 218 227 231 237 240 239 240 255 261 265 264 266
215 94 136 14 322 113 240 307 348 7 358 343 311 311 320 317 302 299 244 224 194 213 213 217 221 219 214 231 226 225 230 224 215 224 232 240 240 238 240 251 262 259 255 263
322 162 138 208 215 192 293 348 358 10 11 28 18 2 351 330 307 286 245 227 228 212 223 235 242 229 219 216 225 237 246 244 242 239 242 242 239 245 251 251 255 257 256 256